Home   Weather   Denver   Past weeks

Flag for USA Past Weather in Denver, Colorado, USA — Yesterday and Last 2 Weeks

65 °F

Passing clouds.

Feels Like: 65 °F
Forecast: 44 / 80 °F
Wind: 7 mph from West

Location: Buckley Air Force Base

Current Time: Oct 22, 2016 at 10:19:45 AM

Latest Report: Oct 22, 2016 at 9:58 AM

Visibility: 10 mi

Pressure: 29.88 "Hg (24.79 "Hg at 1593m altitude)

Humidity: 15%

Dew Point: 16 °F

Location of DenverLocation

Past Weather in Denver — Graph


Denver Temperature Yesterday

Maximum temperature yesterday: 76 °F (at 1:58 PM)
Minimum temperature yesterday: 42 °F (at 2:58 AM)
Average temperature yesterday: 58 °F

High & Low Weather Summary for the Past Weeks

High85 °F (Oct 16, 2:58 PM)100% (Oct 12, 12:58 AM)30.49 "Hg (Oct 12, 12:58 AM)
Low28 °F (Oct 20, 4:58 AM)7% (Oct 21, 1:58 PM)29.39 "Hg (Oct 17, 4:58 AM)
Average56 °F39%29.96 "Hg
* Reported Oct 7 8:58 AM — Oct 22 8:58 AM, Denver, Weather by CustomWeather, © 2016

Note: Actual official high and low records may vary slightly from our data, if they occured in-between our weather recording intervals... More about our weather records


Denver Weather History for the Previous 24 Hours

Scroll right to see more
Time TempWeatherWind HumidityBarometerVisibility
8:58 AM
Sat, Oct 22
57 °FPassing clouds.6 mph19%29.91 "Hg10 mi
7:58 AM51 °FPassing clouds.3 mph22%29.92 "Hg10 mi
6:58 AM45 °FPassing clouds.8 mph27%29.93 "Hg10 mi
5:58 AM45 °FPassing clouds.8 mph28%29.91 "Hg10 mi
4:58 AM43 °FPassing clouds.9 mph29%29.90 "Hg10 mi
3:58 AM45 °FPassing clouds.6 mph28%29.90 "Hg10 mi
2:58 AM49 °FClear.6 mph24%29.89 "Hg10 mi
1:58 AM48 °FClear.7 mph24%29.90 "Hg10 mi
12:58 AM52 °FClear.5 mph21%29.88 "Hg10 mi
11:58 PM
Fri, Oct 21
52 °FClear.12 mph21%29.91 "Hg10 mi
10:58 PM51 °FClear.13 mph21%29.94 "Hg10 mi
9:58 PM56 °FClear.13 mph16%29.95 "Hg10 mi
8:58 PM58 °FClear.12 mph14%29.98 "Hg10 mi
7:58 PM55 °FClear.13 mph20%30.03 "Hg10 mi
6:58 PM57 °FPassing clouds.12 mph16%30.03 "Hg10 mi
5:58 PM67 °FPassing clouds.10 mph11%29.98 "Hg10 mi
4:58 PM74 °FPassing clouds.12 mph7%29.95 "Hg10 mi
3:58 PM76 °FPassing clouds.6 mph8%29.95 "Hg10 mi
2:58 PM76 °FPassing clouds.14 mph7%29.96 "Hg10 mi
1:58 PM76 °FPassing clouds.9 mph7%29.96 "Hg10 mi
12:58 PM74 °FScattered clouds.10 mph9%30.01 "Hg10 mi
11:58 AM72 °FScattered clouds.7 mph10%30.05 "Hg10 mi
10:58 AM68 °FPartly sunny.3 mph10%30.06 "Hg10 mi
Weather by CustomWeather, © 2016

See weather overviewHow to use our weather pages